DELTA 1 DEB, 7849

Orbit data source: Space-Track

DELTA 1 DEB, 7849 is space debris in SSO originally from a launch on Sun, 23 Jul 1972 UTC launched from the Air Force Western Test Range (AFWTR). Debris objects in space refer to the collection of defunct objects orbiting the Earth. Examples of debris include non-operational satellites, rocket bodies, and fragments generated from explosions, collisions, or faulty payload assembly.

Loading next visibility...
Identifier
7849, 1972-058V
Orbit
SSO
Country
Flag of USUS
Related business
Manufacturer
Unknown
Mission
Spacecraft
Bus & Motor
Unknown
Mass
Unknown
Launch date (UTC)
1972-07-23 (53 years ago)
Launch vehicle
Unknown
Launch site
Air Force Western Test Range (AFWTR)
Object type
Payload
Rocket body
Debris
Shape & HBR
Unknown shape, 0.2 m
Radar Cross Section
Medium (>0.1 m² and <1 m²)

Expand to show TLE details & history
Last TLE update: 16 hours ago

TLE from 16 hours ago
0 DELTA 1 DEB
1 07849U 72058V   25293.88745749  .00001250  00000-0  53681-3 0  9997
2 07849  98.0584  39.7709 0322244  18.0163 343.2120 14.01924451519679
Epoch: 2025-10-20T21:17Z
TLE epoch observation values (Epoch: 2025-10-20T21:17:56.327Z)
Latitude
0.00003°
Longitude
50.70288°
Altitude
666.525 km
Speed
7.639 km/s
True Right ascension
02h 39m 05s
True Declination
0° 00' 00"
Sunlit
Object was in full shadow at epoch
Visualization orbit readout
Latitude
Unknown
Longitude
Unknown
Altitude
Unknown
Speed
Unknown
Apparent Right ascension
Unknown
Apparent Declination
Unknown
Sunlit
N/A
Visualization observer readout
Local Sidereal Time
08:04:46
Azimuth
Unknown
Elevation
Unknown
Doppler factor
Unknown
Orbital elements
Apogee altitude
1,118.315 km
Perigee altitude
650.26 km
Semi-major axis
7,262.424 km
Eccentricity
0.03222
Inclination
98.0584°
RAAN
39.7709°
Arg. of periapsis
18.0163°
True anomaly
342.10281°
Mean anomaly
343.212°
Eccentric anomaly
342.66177°
Mean motion
3.50688 °/min
Orbital period
102.66 mins
BSTAR
0.00053681
Loading maneuver chart data...
Computing Atmospheric mass density...

Documentation

Showing up to 5 results
|